Weather History for Tehachapi, CA

Change the Weather History Date:

Monday, April 28, 2014

  Actual Average Record
Temperature  
Mean Temperature 48 °F -  
Max Temperature 57 °F 66 °F 77 °F (2013)
Min Temperature 39 °F 41 °F 39 °F (2014)
Degree Days  
Heating Degree Days 17    
Moisture  
Dew Point 38 °F    
Average Humidity 64    
Maximum Humidity 93    
Minimum Humidity 44    
Precipitation  
Precipitation 0.00 in - - ()
Sea Level Pressure  
Sea Level Pressure 30.15 in    
Wind  
Wind Speed 13 mph (NW)    
Max Wind Speed 20 mph    
Max Gust Speed 25 mph    
Visibility 9 miles    
Events      
Averages and records for this station are not official NWS values.
T = Trace of Precipitation, MM = Missing Value Source: NWS Daily Summary

Daily Weather History Graph

Daily Weather History Graph

Search for Another Location

Airport:

Trip Planner

Search our weather history database for the weather conditions in past years. The results will help you decide how hot, cold, wet, or windy it might be!

Date:

Astronomy

Apr. 28, 2014 Rise Set
Actual Time 6:05 AM PDT 7:37 PM PDT
Civil Twilight 5:38 AM PDT 8:04 PM PDT
Nautical Twilight 5:06 AM PDT 8:36 PM PDT
Astronomical Twilight 4:32 AM PDT 9:10 PM PDT
Moon 5:45 AM PDT (4/28) 7:21 PM PDT (4/28)
Length of Visible Light 14h 25m
Length of Day
13h 31m
Waning Crescent, 0% of the Moon is Illuminated
Apr 28
Waning Crescent
Apr 28
New
May 6
First Quarter
May 14
Full
May 21
Last Quarter

Hourly Weather History & Observations

Time (PDT) Temp. Windchill Dew Point Humidity Pressure Visibility Wind Dir Wind Speed Gust Speed Precip Events Conditions
12:15 AM 46.4 °F 40.4 °F 35.6 °F 66% 30.08 in 10.0 mi NW 13.8 mph 20.7 mph N/A   Clear
12:35 AM 44.6 °F 38.1 °F 35.6 °F 71% 30.08 in 10.0 mi NW 13.8 mph - N/A   Clear
12:55 AM 44.6 °F 37.4 °F 35.6 °F 71% 30.09 in 10.0 mi NW 16.1 mph 20.7 mph N/A   Clear
1:15 AM 44.6 °F 38.4 °F 35.6 °F 71% 30.08 in 10.0 mi NW 12.7 mph - N/A   Clear
1:35 AM 44.6 °F 38.4 °F 35.6 °F 71% 30.08 in 10.0 mi NW 12.7 mph - N/A   Scattered Clouds
1:55 AM 44.6 °F 37.8 °F 35.6 °F 71% 30.07 in 10.0 mi WNW 15.0 mph - N/A   Mostly Cloudy
2:15 AM 46.4 °F 39.8 °F 37.4 °F 71% 30.06 in 10.0 mi WNW 16.1 mph - N/A   Mostly Cloudy
2:35 AM 46.4 °F 39.5 °F 37.4 °F 71% 30.07 in 10.0 mi NW 17.3 mph 24.2 mph N/A   Mostly Cloudy
2:55 AM 44.6 °F 37.4 °F 37.4 °F 76% 30.07 in 10.0 mi NW 16.1 mph 23.0 mph N/A   Overcast
3:15 AM 44.6 °F 36.9 °F 35.6 °F 71% 30.07 in 10.0 mi NW 18.4 mph 24.2 mph N/A   Scattered Clouds
3:35 AM 44.6 °F 37.4 °F 35.6 °F 71% 30.07 in 10.0 mi NW 16.1 mph 25.3 mph N/A   Clear
3:55 AM 44.6 °F 37.8 °F 35.6 °F 71% 30.07 in 10.0 mi NW 15.0 mph 23.0 mph N/A   Scattered Clouds
4:15 AM 44.6 °F 37.8 °F 35.6 °F 71% 30.07 in 10.0 mi NW 15.0 mph - N/A   Overcast
4:35 AM 44.6 °F 37.4 °F 35.6 °F 71% 30.07 in 10.0 mi NW 16.1 mph - N/A   Overcast
5:55 AM 41.0 °F 35.2 °F 37.4 °F 87% 30.09 in 9.0 mi WNW 9.2 mph - N/A   Clear
6:15 AM 39.2 °F 35.9 °F 37.4 °F 93% 30.11 in 6.0 mi West 4.6 mph - N/A   Clear
6:35 AM 41.0 °F 38.0 °F 37.4 °F 87% 30.12 in 8.0 mi NW 4.6 mph - N/A   Partly Cloudy
6:55 AM 42.8 °F 40.1 °F 39.2 °F 87% 30.13 in 6.0 mi West 4.6 mph - N/A   Partly Cloudy
7:15 AM 44.6 °F 41.4 °F 39.2 °F 81% 30.14 in 7.0 mi West 5.8 mph - N/A   Clear
7:35 AM 44.6 °F 40.7 °F 39.2 °F 81% 30.14 in 7.0 mi West 6.9 mph - N/A   Clear
7:55 AM 46.4 °F 40.7 °F 39.2 °F 76% 30.14 in 9.0 mi West 12.7 mph - N/A   Clear
8:15 AM 48.2 °F - 39.2 °F 71% 30.13 in 9.0 mi West 17.3 mph - N/A   Clear
8:35 AM 48.2 °F - 39.2 °F 71% 30.14 in 9.0 mi West 12.7 mph - N/A   Clear
8:55 AM 50.0 °F - 37.4 °F 62% 30.15 in 10.0 mi WNW 11.5 mph - N/A   Clear
9:15 AM 50.0 °F - 37.4 °F 62% 30.15 in 9.0 mi NW 12.7 mph 18.4 mph N/A   Clear
9:35 AM 51.8 °F - 37.4 °F 58% 30.15 in 9.0 mi NW 18.4 mph 23.0 mph N/A   Clear
9:55 AM 51.8 °F - 37.4 °F 58% 30.17 in 10.0 mi NW 16.1 mph 25.3 mph N/A   Clear
10:15 AM 53.6 °F - 37.4 °F 54% 30.18 in 10.0 mi NW 13.8 mph - N/A   Clear
10:35 AM 53.6 °F - 37.4 °F 54% 30.18 in 9.0 mi NW 15.0 mph - N/A   Clear
10:55 AM 53.6 °F - 37.4 °F 54% 30.18 in 9.0 mi NW 15.0 mph - N/A   Clear
11:15 AM 55.4 °F - 37.4 °F 51% 30.18 in 9.0 mi NNW 17.3 mph - N/A   Clear
11:35 AM 55.4 °F - 35.6 °F 47% 30.18 in 9.0 mi NW 17.3 mph - N/A   Clear
11:55 AM 55.4 °F - 35.6 °F 47% 30.17 in 10.0 mi NW 16.1 mph 19.6 mph N/A   Clear
12:15 PM 55.4 °F - 35.6 °F 47% 30.17 in 9.0 mi NW 16.1 mph - N/A   Clear
12:55 PM 57.2 °F - 35.6 °F 44% 30.16 in 8.0 mi NW 18.4 mph 21.9 mph N/A   Clear
1:35 PM 57.2 °F - 39.2 °F 51% 30.16 in 8.0 mi NW 16.1 mph - N/A   Clear
1:55 PM 57.2 °F - 41.0 °F 55% 30.16 in 9.0 mi NW 15.0 mph 21.9 mph N/A   Clear
2:15 PM 57.2 °F - 41.0 °F 55% 30.16 in 8.0 mi NW 17.3 mph 23.0 mph N/A   Clear
2:35 PM 57.2 °F - 41.0 °F 55% 30.16 in 8.0 mi NW 16.1 mph 21.9 mph N/A   Clear
2:55 PM 57.2 °F - 41.0 °F 55% 30.16 in 7.0 mi NW 16.1 mph 21.9 mph N/A   Clear
3:15 PM 57.2 °F - 41.0 °F 55% 30.15 in 8.0 mi NW 16.1 mph 25.3 mph N/A   Clear
3:35 PM 57.2 °F - 41.0 °F 55% 30.15 in 8.0 mi NW 16.1 mph 21.9 mph N/A   Clear
3:55 PM 57.2 °F - 41.0 °F 55% 30.15 in 7.0 mi NW 18.4 mph - N/A   Clear
4:15 PM 57.2 °F - 41.0 °F 55% 30.14 in 7.0 mi NW 16.1 mph 23.0 mph N/A   Clear
4:35 PM 57.2 °F - 41.0 °F 55% 30.14 in 7.0 mi NW 17.3 mph 24.2 mph N/A   Clear
4:55 PM 57.2 °F - 41.0 °F 55% 30.14 in 8.0 mi NW 17.3 mph 23.0 mph N/A   Clear
5:15 PM 57.2 °F - 39.2 °F 51% 30.15 in 8.0 mi NW 19.6 mph 25.3 mph N/A   Clear
5:35 PM 57.2 °F - 39.2 °F 51% 30.15 in 8.0 mi NW 15.0 mph 24.2 mph N/A   Clear
5:55 PM 55.4 °F - 37.4 °F 51% 30.15 in 8.0 mi WNW 15.0 mph 21.9 mph N/A   Clear
6:15 PM 55.4 °F - 37.4 °F 51% 30.16 in 8.0 mi WNW 12.7 mph 18.4 mph N/A   Clear
6:35 PM 55.4 °F - 37.4 °F 51% 30.16 in 8.0 mi NW 12.7 mph 18.4 mph N/A   Clear
6:55 PM 55.4 °F - 37.4 °F 51% 30.16 in 8.0 mi WNW 12.7 mph - N/A   Clear
7:15 PM 53.6 °F - 37.4 °F 54% 30.17 in 8.0 mi NW 11.5 mph - N/A   Clear
7:55 PM 51.8 °F - 37.4 °F 58% 30.17 in 9.0 mi WNW 9.2 mph - N/A   Clear
8:15 PM 50.0 °F - 37.4 °F 62% 30.18 in 10.0 mi West 5.8 mph - N/A   Clear
8:35 PM 48.2 °F - 37.4 °F 66% 30.19 in 10.0 mi West 8.1 mph - N/A   Clear
8:55 PM 48.2 °F - 39.2 °F 71% 30.20 in 10.0 mi West 6.9 mph - N/A   Clear
9:15 PM 48.2 °F - 39.2 °F 71% 30.21 in 9.0 mi West 8.1 mph - N/A   Clear
9:35 PM 48.2 °F - 39.2 °F 71% 30.21 in 8.0 mi West 9.2 mph - N/A   Clear
9:55 PM 48.2 °F - 39.2 °F 71% 30.22 in 9.0 mi West 4.6 mph - N/A   Clear
10:35 PM 46.4 °F - 37.4 °F 71% 30.23 in 9.0 mi Calm Calm - N/A   Clear
10:55 PM 46.4 °F 45.2 °F 37.4 °F 71% 30.23 in 9.0 mi NW 3.5 mph - N/A   Clear
11:15 PM 46.4 °F - 37.4 °F 71% 30.23 in 9.0 mi Calm Calm - N/A   Clear
11:35 PM 44.6 °F - 39.2 °F 81% 30.23 in 8.0 mi Calm Calm - N/A   Clear
11:55 PM 42.8 °F - 39.2 °F 87% 30.24 in 8.0 mi Calm Calm - N/A   Clear